Location: Newark
(37.3333°N, 6.0167°W)
Time: 13:45:12
(UTC+00:00)

LightSail 2 - Pass Details

Date: 14 November 2019
Orbit: 696 x 730 km, 24.0° (Epoch: 06 December)

Event Time Altitude Azimuth Distance (km) Brightness Sun altitude
Exits shadow 05:47:20 - 230° (SW) 2,332 7.4 -15.0°
Reaches altitude 10° 05:47:49 10° 226° (SW) 2,210 7.4 -14.9°
Maximum altitude 05:51:12 17° 186° (S) 1,760 7.2 -14.2°
Drops below altitude 10° 05:54:36 10° 145° (SE) 2,213 8.4 -13.6°
Sets 05:57:48 0° 126° (SE) 3,134 9.8 -12.9°
